Wind_Speed
62 62 64 64 65 66 67 66 67 68 71 72 70 69 69 67 67 65 60 59 59 57 55 55 54 59 61 60 52 52 58 61 61 64 66 68 68 71
67 68 68 69 70 71 71 71 70 70 71 74 74 76 75 71 68 66 65 60 60 59 57 55 55 58 66 58 57 57 61 62 65 69 71 70 73 75
71 72 72 73 74 74 74 74 73 73 72 75 77 74 74 73 70 69 66 63 60 59 58 57 61 64 65 67 61 60 64 64 68 71 75 76 78 78
76 76 76 77 77 77 77 77 78 78 76 77 73 72 72 72 71 72 68 66 62 61 63 66 68 69 72 68 57 59 64 69 73 78 78 81 82 84
80 81 82 80 80 80 81 81 81 80 78 75 72 71 72 73 72 71 70 69 66 64 65 70 71 74 72 68 65 65 70 74 78 79 83 85 86 89
84 84 84 82 82 83 83 82 82 83 80 77 74 75 76 75 74 72 71 71 69 70 69 72 74 75 76 67 67 73 76 81 82 85 87 89 92 91
87 87 87 87 85 86 86 85 85 84 82 79 77 79 78 77 77 75 71 70 71 70 71 72 73 70 71 72 74 80 81 83 86 89 90 95 96 93
90 90 90 88 89 89 87 88 89 88 82 81 82 82 83 82 78 77 71 73 72 71 70 72 71 70 77 79 82 84 87 89 91 93 94 100 99 94
92 91 90 92 92 91 91 91 89 87 85 86 87 88 85 84 78 77 77 75 73 74 77 77 78 76 81 83 86 88 90 92 96 97 102 100 95 98
95 94 94 93 93 94 94 92 90 90 91 90 90 89 86 84 80 78 79 79 79 80 82 82 82 84 86 87 89 92 94 99 102 101 99 97 96 104
95 96 95 96 95 97 95 94 94 94 96 94 90 85 83 81 81 83 84 84 83 83 86 89 89 89 92 94 96 95 94 97 96 98 96 99 105 107
97 97 98 98 101 97 97 97 100 101 98 93 86 82 81 81 83 88 89 90 88 89 92 90 92 95 95 95 95 96 97 101 97 98 101 106 108 109
102 101 102 100 99 98 99 101 103 98 92 85 83 78 77 81 83 87 88 90 93 92 93 94 93 93 95 97 100 101 97 97 101 105 108 109 109 112
104 103 101 100 100 100 102 101 95 87 82 78 77 80 77 79 83 85 85 87 87 89 92 96 97 99 97 94 94 98 99 98 104 106 108 110 106 105
104 102 101 101 101 102 97 87 82 78 75 74 76 78 81 82 83 85 89 88 88 92 91 92 91 89 91 95 94 98 101 104 105 106 105 106 111 110
104 103 103 103 101 93 85 81 78 77 75 74 74 78 82 83 83 85 89 93 92 91 93 93 92 95 99 100 100 104 103 102 106 106 110 113 114 116
107 106 104 101 94 88 83 79 77 77 76 76 79 78 79 80 80 82 83 86 87 90 91 94 95 97 101 102 104 105 107 109 110 109 114 119 118 118
105 102 100 96 92 88 84 81 79 79 80 80 79 81 83 84 85 86 88 89 90 91 93 96 100 102 104 106 106 108 111 111 113 116 116 118 122 122
105 102 100 98 95 91 89 86 84 82 84 85 85 84 85 87 89 89 90 92 94 97 98 101 101 103 106 107 109 109 111 115 116 117 117 118 122 128
108 108 104 104 99 97 94 90 89 88 89 89 90 90 90 91 92 93 93 95 96 98 100 103 105 106 108 111 111 112 114 114 116 119 120 126 130 131
114 112 110 110 106 104 102 97 95 92 92 95 95 95 96 96 98 98 99 101 102 103 103 105 107 108 111 111 113 114 114 119 121 123 127 131 133 133
118 116 116 115 115 112 110 108 104 103 99 98 100 101 101 102 102 101 103 104 104 106 106 107 109 110 112 115 117 120 124 123 126 129 130 128 124 123
123 122 122 121 119 117 115 113 111 107 106 105 106 106 107 107 107 108 108 107 109 109 111 113 114 117 118 121 123 125 130 129 130 127 121 117 112 111
Wind_Direction
265 269 274 279 283 287 291 291 293 295 297 298 297 297 296 296 295 295 295 293 290 285 278 274 275 281 281 282 285 286 288 292 297 298 302 303 304 306
267 271 274 280 284 288 292 293 294 295 295 295 296 296 294 292 291 290 291 291 288 287 279 275 274 276 277 283 281 282 285 294 299 298 298 302 304 308
271 274 278 281 285 288 291 292 292 293 292 294 295 293 291 289 289 287 287 288 287 285 280 275 273 276 278 280 283 287 289 294 295 295 298 302 303 308
271 276 279 282 285 288 288 290 291 292 293 293 292 291 289 285 284 284 284 285 287 286 283 276 276 279 282 286 288 288 286 289 293 296 298 303 307 308
273 275 279 282 284 286 287 289 291 292 293 292 291 291 288 284 281 280 281 284 285 284 281 278 283 286 285 287 287 286 287 289 292 297 299 304 306 309
275 277 280 282 283 284 287 288 289 291 291 291 289 290 289 283 279 277 277 280 284 285 287 294 292 292 289 288 286 287 289 291 295 298 302 303 306 307
275 276 279 280 282 284 285 288 289 291 290 288 288 289 287 283 280 278 278 279 281 284 286 286 286 287 286 286 288 289 292 294 297 299 301 303 306 306
273 275 277 279 280 282 284 287 288 288 286 285 285 287 285 283 281 278 278 276 278 281 281 280 281 283 283 286 288 290 292 295 297 299 301 302 306 306
271 273 275 277 280 282 284 286 286 285 285 285 286 284 282 279 275 273 273 274 277 275 275 277 278 279 282 285 288 291 293 294 297 297 300 303 303 305
269 272 274 277 280 282 284 283 284 285 284 285 284 282 278 274 271 270 269 270 271 273 274 277 277 279 283 285 287 290 291 294 296 297 301 302 301 305
270 272 276 277 279 281 282 282 284 286 286 286 284 278 272 268 264 263 264 265 268 269 271 273 276 279 283 286 288 291 292 293 296 298 300 300 302 305
272 273 275 277 279 281 282 285 286 287 287 284 279 272 267 264 261 261 262 265 268 269 272 274 278 281 284 286 288 289 291 294 298 297 299 302 305 305
270 272 274 277 278 280 282 284 286 286 283 280 276 271 265 262 263 262 263 266 268 270 272 274 277 280 281 285 287 290 293 294 296 298 301 301 301 304
270 273 274 276 278 281 284 284 284 281 279 277 272 269 266 263 261 263 265 265 267 270 273 275 278 279 283 288 289 292 295 297 298 298 299 301 301 302
270 272 274 275 279 282 282 280 279 278 278 274 270 268 267 268 268 266 264 268 272 272 275 278 283 284 286 290 292 293 295 295 298 299 298 300 302 302
271 272 274 276 278 279 279 280 279 280 281 278 271 269 267 269 269 269 268 269 273 276 277 280 283 285 286 289 291 290 294 295 296 297 300 300 300 301
270 272 274 275 275 276 277 277 276 277 276 275 274 274 274 274 273 274 274 275 276 277 279 281 282 285 286 286 287 290 293 296 296 296 298 299 300 301
269 270 272 273 274 275 275 274 275 274 273 270 270 271 271 272 272 273 274 276 278 278 280 281 281 283 285 286 289 290 291 293 295 296 297 298 300 301
268 268 269 270 271 272 272 274 272 271 270 269 269 269 271 272 273 273 274 275 276 277 279 280 281 282 284 286 288 289 290 292 294 295 296 299 300 301
268 268 269 269 270 271 271 271 269 268 269 270 270 269 269 270 271 272 274 274 275 276 277 278 280 282 283 284 287 289 290 292 293 295 299 300 302 303
266 266 267 269 270 270 270 269 269 267 266 266 267 267 267 268 269 270 272 273 275 276 277 279 281 283 285 287 289 290 291 293 295 296 298 300 303 304
264 266 267 268 269 270 270 270 270 269 268 266 265 266 267 267 269 270 272 273 275 277 279 280 281 283 285 287 290 291 292 294 295 296 298 301 302 304
265 266 267 268 269 270 272 271 271 271 269 268 267 266 265 266 267 269 270 272 272 275 277 278 281 283 286 287 289 291 293 295 294 298 299 301 302 304
Height
10692 10695 10694 10694 10693 10692 10691 10689 10687 10683 10678 10674 10671 10669 10667 10664 10660 10658 10656 10653 10649 10647 10645 10644 10644 10638 10637 10634 10633 10632 10628 10624 10619 10614 10610 10605 10599 10593
10678 10679 10681 10679 10679 10678 10676 10675 10673 10671 10666 10660 10658 10654 10651 10649 10646 10644 10642 10640 10636 10634 10632 10630 10629 10625 10620 10621 10618 10616 10613 10610 10606 10600 10594 10590 10584 10577
10663 10663 10665 10664 10663 10663 10661 10659 10658 10657 10655 10647 10643 10641 10636 10634 10631 10628 10626 10625 10623 10621 10619 10617 10613 10609 10605 10603 10605 10603 10600 10596 10590 10584 10578 10573 10568 10561
10647 10648 10648 10648 10648 10647 10646 10643 10642 10640 10639 10634 10630 10626 10622 10619 10615 10612 10610 10609 10608 10608 10606 10602 10597 10593 10590 10590 10592 10588 10582 10578 10573 10568 10562 10557 10549 10543
10631 10632 10631 10633 10633 10630 10630 10629 10625 10623 10623 10620 10615 10611 10607 10603 10600 10597 10595 10594 10594 10592 10590 10584 10581 10579 10578 10576 10574 10571 10566 10562 10557 10550 10545 10538 10532 10525
10613 10613 10613 10615 10614 10614 10613 10612 10610 10606 10604 10602 10598 10595 10591 10586 10584 10581 10581 10579 10579 10577 10574 10570 10568 10566 10563 10562 10558 10554 10550 10545 10540 10533 10527 10520 10513 10505
10594 10595 10595 10597 10597 10596 10595 10592 10591 10589 10586 10584 10582 10578 10574 10569 10566 10566 10566 10565 10563 10561 10560 10556 10552 10550 10547 10544 10541 10535 10531 10526 10521 10514 10508 10501 10493 10484
10575 10577 10578 10578 10578 10579 10578 10575 10573 10571 10569 10567 10565 10561 10555 10552 10551 10550 10551 10547 10547 10544 10543 10540 10537 10534 10529 10526 10521 10516 10512 10508 10501 10496 10489 10482 10474 10464
10558 10558 10559 10558 10558 10557 10557 10557 10554 10551 10549 10546 10545 10540 10538 10532 10533 10533 10529 10529 10530 10528 10524 10522 10518 10515 10510 10506 10502 10497 10493 10487 10481 10475 10469 10461 10452 10443
10537 10538 10540 10539 10537 10536 10537 10536 10534 10531 10529 10528 10525 10519 10517 10513 10513 10513 10511 10510 10510 10510 10507 10505 10500 10496 10492 10487 10483 10479 10474 10468 10461 10455 10448 10440 10431 10422
10516 10517 10518 10517 10518 10517 10516 10514 10513 10507 10504 10504 10501 10496 10493 10494 10494 10492 10491 10490 10492 10491 10488 10485 10480 10479 10474 10468 10463 10459 10454 10448 10440 10434 10425 10419 10412 10402
10495 10497 10496 10495 10494 10495 10494 10491 10487 10484 10481 10476 10475 10472 10472 10474 10472 10470 10472 10473 10473 10472 10469 10468 10463 10458 10456 10449 10444 10439 10432 10426 10418 10412 10404 10397 10390 10383
10473 10473 10473 10474 10471 10472 10472 10470 10467 10462 10455 10454 10451 10452 10454 10454 10453 10453 10454 10454 10453 10451 10449 10447 10444 10440 10435 10430 10422 10418 10413 10407 10399 10390 10382 10374 10366 10363
10449 10451 10451 10450 10449 10450 10450 10446 10442 10440 10436 10434 10433 10433 10435 10436 10434 10433 10434 10434 10432 10429 10428 10425 10423 10419 10415 10410 10404 10400 10394 10386 10378 10369 10360 10351 10344 10337
10426 10427 10427 10428 10427 10427 10426 10425 10422 10419 10417 10416 10415 10416 10416 10416 10416 10415 10414 10412 10410 10409 10407 10405 10401 10398 10395 10390 10386 10380 10373 10367 10356 10346 10334 10325 10319 10312
10402 10403 10404 10404 10406 10406 10403 10403 10400 10398 10397 10397 10398 10398 10398 10398 10397 10396 10395 10393 10392 10390 10388 10386 10383 10379 10374 10371 10366 10359 10350 10343 10335 10324 10312 10299 10294 10288
10377 10378 10380 10382 10384 10384 10384 10384 10383 10381 10380 10379 10378 10378 10378 10378 10378 10377 10376 10374 10373 10371 10369 10366 10362 10357 10353 10348 10343 10336 10327 10320 10311 10302 10292 10273 10264 10259
10351 10354 10355 10358 10359 10362 10363 10364 10363 10362 10362 10360 10359 10359 10359 10359 10358 10358 10357 10355 10353 10350 10348 10343 10339 10334 10328 10324 10319 10314 10305 10295 10286 10280 10269 10254 10236 10227
10325 10328 10332 10334 10339 10341 10340 10342 10342 10342 10340 10338 10338 10338 10337 10337 10335 10335 10334 10333 10330 10328 10324 10320 10315 10309 10304 10300 10295 10289 10280 10271 10263 10253 10244 10234 10218 10201
10295 10297 10303 10306 10313 10315 10318 10321 10319 10319 10318 10317 10317 10315 10315 10315 10313 10312 10311 10308 10306 10303 10300 10295 10290 10286 10280 10275 10272 10265 10256 10247 10238 10227 10218 10203 10190 10175
10267 10271 10275 10276 10281 10287 10289 10292 10295 10297 10297 10294 10293 10293 10291 10290 10289 10288 10286 10283 10281 10278 10276 10272 10268 10262 10256 10251 10245 10238 10233 10223 10213 10203 10191 10179 10165 10144
10239 10243 10245 10248 10250 10255 10257 10261 10265 10267 10269 10268 10269 10270 10268 10267 10265 10265 10263 10261 10258 10255 10252 10249 10242 10238 10233 10225 10219 10209 10199 10199 10187 10176 10168 10158 10144 10128
10213 10216 10217 10218 10222 10224 10228 10231 10233 10238 10238 10239 10238 10240 10241 10239 10239 10237 10236 10235 10230 10229 10225 10220 10217 10212 10207 10199 10191 10183 10174 10165 10154 10148 10143 10132 10121 10107